| time (UTC) | temp F | wind direction | speed knots | gust knots | rain 1hr in | rain 24hr in | rain mn in | humidity % | barometer mb |
| 20260510193042 | 73 | 112 | 0.0 | 8.7 | 0.42 | 0.49 | 0.42 | 90 | 1017.3 |
| 20260510191541 | 79 | 359 | 6.1 | 19.1 | 0.16 | 0.23 | 0.16 | 87 | 1017.4 |
| 20260510190042 | 82 | 359 | 0.0 | 2.6 | 0.00 | 0.07 | 0.00 | 78 | 1016.7 |
| 20260510184542 | 82 | 359 | 0.9 | 7.0 | 0.00 | 0.07 | 0.00 | 75 | 1016.3 |
| 20260510183038 | 83 | 359 | 0.0 | 4.3 | 0.00 | 0.07 | 0.00 | 75 | 1016.8 |
| 20260510181538 | 84 | 25 | 0.0 | 4.3 | 0.00 | 0.07 | 0.00 | 74 | 1016.9 |
| 20260510180043 | 84 | 359 | 0.9 | 10.4 | 0.00 | 0.07 | 0.00 | 69 | 1017.0 |
| 20260510174537 | 89 | 359 | 0.0 | 0.0 | 0.00 | 0.07 | 0.00 | 58 | 1016.9 |
| 20260510173038 | 88 | 359 | 0.0 | 0.0 | 0.00 | 0.07 | 0.00 | 59 | 1017.1 |
| 20260510171546 | 90 | 359 | 0.0 | 0.0 | 0.00 | 0.07 | 0.00 | 57 | 1017.2 |
| 20260510170036 | 89 | 359 | 0.0 | 0.9 | 0.00 | 0.07 | 0.00 | 57 | 1017.3 |
| 20260510164530 | 88 | 359 | 0.0 | 0.9 | 0.00 | 0.07 | 0.00 | 62 | 1017.5 |
| 20260510163027 | 87 | 359 | 0.0 | 0.9 | 0.00 | 0.07 | 0.00 | 64 | 1017.7 |
| 20260510161526 | 86 | 55 | 0.0 | 0.9 | 0.00 | 0.07 | 0.00 | 66 | 1017.8 |
| 20260510160024 | 87 | 359 | 0.0 | 0.9 | 0.00 | 0.07 | 0.00 | 66 | 1017.7 |
| 20260510154522 | 85 | 359 | 0.0 | 0.9 | 0.00 | 0.07 | 0.00 | 69 | 1017.8 |
| 20260510153033 | 85 | 37 | 0.0 | 0.0 | 0.00 | 0.07 | 0.00 | 70 | 1017.9 |
| 20260510151527 | 85 | 359 | 0.0 | 0.0 | 0.00 | 0.07 | 0.00 | 69 | 1017.8 |
| 20260510150015 | 85 | 359 | 0.0 | 0.0 | 0.00 | 0.07 | 0.00 | 70 | 1017.7 |
| 20260510144512 | 83 | 359 | 0.0 | 1.7 | 0.00 | 0.07 | 0.00 | 73 | 1017.6 |
| 20260510143008 | 82 | 359 | 0.0 | 0.9 | 0.00 | 0.07 | 0.00 | 76 | 1017.7 |
| 20260510141505 | 80 | 359 | 0.0 | 0.0 | 0.00 | 0.07 | 0.00 | 81 | 1017.6 |
| 20260510140001 | 79 | 359 | 0.0 | 0.9 | 0.00 | 0.07 | 0.00 | 83 | 1017.3 |
| 20260510134558 | 78 | 359 | 0.0 | 4.3 | 0.00 | 0.07 | 0.00 | 86 | 1017.3 |
| 20260510133054 | 77 | 359 | 0.0 | 4.3 | 0.00 | 0.07 | 0.00 | 89 | 1017.2 |
| 20260510131551 | 76 | 359 | 1.7 | 4.3 | 0.00 | 0.07 | 0.00 | 92 | 1017.2 |
| 20260510130051 | 75 | 359 | 1.7 | 7.0 | 0.00 | 0.07 | 0.00 | 94 | 1017.0 |
| 20260510124558 | 75 | 359 | 0.0 | 3.5 | 0.00 | 0.07 | 0.00 | 95 | 1017.0 |
| 20260510123041 | 74 | 359 | 0.0 | 5.2 | 0.00 | 0.07 | 0.00 | 95 | 1016.8 |
| 20260510121541 | 73 | 359 | 0.9 | 3.5 | 0.00 | 0.07 | 0.00 | 96 | 1016.7 |
| 20260510120037 | 73 | 359 | 0.0 | 0.0 | 0.00 | 0.07 | 0.00 | 96 | 1016.4 |
| 20260510114535 | 73 | 359 | 0.0 | 0.0 | 0.00 | 0.07 | 0.00 | 96 | 1016.3 |
| 20260510113036 | 72 | 359 | 0.0 | 0.0 | 0.00 | 0.07 | 0.00 | 96 | 1016.1 |
| 20260510111530 | 72 | 359 | 0.0 | 0.0 | 0.00 | 0.07 | 0.00 | 96 | 1015.9 |
| 20260510110037 | 72 | 359 | 0.0 | 0.0 | 0.00 | 0.07 | 0.00 | 96 | 1015.8 |
| 20260510104525 | 73 | 359 | 0.0 | 4.3 | 0.00 | 0.07 | 0.00 | 96 | 1015.6 |
| 20260510103024 | 72 | 359 | 0.0 | 2.6 | 0.00 | 0.07 | 0.00 | 96 | 1015.3 |
| 20260510101532 | 73 | 359 | 0.0 | 2.6 | 0.00 | 0.07 | 0.00 | 96 | 1015.1 |
| 20260510100025 | 73 | 359 | 0.0 | 0.0 | 0.00 | 0.07 | 0.00 | 96 | 1015.0 |
| 20260510094525 | 73 | 359 | 0.0 | 0.9 | 0.00 | 0.07 | 0.00 | 96 | 1014.9 |
| 20260510093021 | 73 | 359 | 0.0 | 1.7 | 0.00 | 0.07 | 0.00 | 96 | 1014.8 |
| 20260510091527 | 73 | 359 | 0.0 | 4.3 | 0.00 | 0.07 | 0.00 | 96 | 1014.8 |
| 20260510090025 | 73 | 359 | 0.0 | 2.6 | 0.00 | 0.07 | 0.00 | 95 | 1014.4 |
| 20260510084519 | 73 | 184 | 0.0 | 1.7 | 0.00 | 0.07 | 0.00 | 95 | 1014.3 |
| 20260510083017 | 73 | 359 | 0.0 | 1.7 | 0.00 | 0.07 | 0.00 | 95 | 1014.4 |
| 20260510081516 | 73 | 359 | 0.0 | 0.9 | 0.00 | 0.07 | 0.00 | 94 | 1014.5 |
| 20260510080019 | 73 | 214 | 0.0 | 0.0 | 0.00 | 0.07 | 0.00 | 94 | 1014.6 |
| 20260510074515 | 73 | 208 | 0.0 | 0.0 | 0.00 | 0.07 | 0.00 | 94 | 1014.6 |
| 20260510073013 | 74 | 158 | 0.0 | 0.0 | 0.00 | 0.07 | 0.00 | 93 | 1014.6 |
| 20260510071518 | 74 | 139 | 0.0 | 0.0 | 0.00 | 0.07 | 0.00 | 93 | 1014.7 |
| 20260510070014 | 74 | 137 | 0.0 | 0.0 | 0.00 | 0.07 | 0.00 | 93 | 1014.8 |
| 20260510064525 | 74 | 136 | 0.0 | 0.0 | 0.00 | 0.07 | 0.00 | 93 | 1015.0 |
| 20260510063008 | 74 | 136 | 0.0 | 0.0 | 0.00 | 0.07 | 0.00 | 93 | 1015.2 |
| 20260510061515 | 74 | 135 | 0.0 | 0.0 | 0.00 | 0.07 | 0.00 | 93 | 1015.4 |
| 20260510060007 | 74 | 128 | 0.0 | 0.0 | 0.00 | 0.07 | 0.00 | 92 | 1015.5 |
| 20260510054502 | 74 | 118 | 0.0 | 0.0 | 0.00 | 0.07 | 0.00 | 92 | 1015.7 |
| 20260510053102 | 74 | 359 | 0.0 | 0.0 | 0.00 | 0.07 | 0.00 | 92 | 1015.9 |
| 20260510051603 | 74 | 359 | 0.0 | 0.0 | 0.00 | 0.07 | 0.00 | 92 | 1016.0 |
| 20260510050058 | 74 | 359 | 0.0 | 0.0 | 0.00 | 0.07 | 0.00 | 91 | 1016.0 |
| 20260510044555 | 75 | 359 | 0.0 | 0.0 | 0.00 | 0.07 | 0.00 | 91 | 1016.2 |
| 20260510043051 | 75 | 359 | 0.0 | 0.0 | 0.00 | 0.07 | 0.00 | 91 | 1016.2 |
| 20260510041551 | 75 | 359 | 0.0 | 0.0 | 0.00 | 0.07 | 0.00 | 91 | 1016.3 |
| 20260510040048 | 75 | 359 | 0.0 | 0.0 | 0.00 | 0.07 | 0.00 | 91 | 1016.3 |
| 20260510034549 | 75 | 359 | 0.0 | 0.0 | 0.00 | 0.07 | 0.07 | 91 | 1016.2 |
| 20260510033055 | 75 | 282 | 0.0 | 0.0 | 0.00 | 0.07 | 0.07 | 90 | 1016.3 |
| 20260510031546 | 75 | 280 | 0.0 | 0.0 | 0.00 | 0.07 | 0.07 | 90 | 1016.3 |
| 20260510030046 | 75 | 280 | 0.0 | 0.0 | 0.00 | 0.07 | 0.07 | 90 | 1016.2 |
| 20260510024546 | 75 | 244 | 0.0 | 0.0 | 0.00 | 0.07 | 0.07 | 90 | 1016.2 |
| 20260510023044 | 75 | 127 | 0.0 | 0.0 | 0.00 | 0.07 | 0.07 | 90 | 1016.2 |
| 20260510021546 | 75 | 35 | 0.0 | 0.0 | 0.00 | 0.07 | 0.07 | 90 | 1016.2 |
| 20260510020042 | 75 | 359 | 0.0 | 0.9 | 0.00 | 0.07 | 0.07 | 90 | 1016.1 |
| 20260510014543 | 75 | 359 | 0.0 | 0.0 | 0.00 | 0.07 | 0.07 | 90 | 1015.8 |
| 20260510013040 | 75 | 359 | 0.0 | 0.0 | 0.00 | 0.07 | 0.07 | 90 | 1015.8 |
| 20260510011541 | 75 | 359 | 0.0 | 0.9 | 0.00 | 0.07 | 0.07 | 89 | 1015.5 |
| 20260510010041 | 75 | 359 | 0.0 | 0.0 | 0.00 | 0.07 | 0.07 | 88 | 1015.6 |
| 20260510004539 | 75 | 359 | 0.0 | 0.0 | 0.00 | 0.07 | 0.07 | 89 | 1015.3 |
| 20260510003054 | 75 | 359 | 0.0 | 1.7 | 0.00 | 0.07 | 0.07 | 90 | 1014.9 |
| 20260510001640 | 76 | 12 | 0.0 | 0.9 | 0.00 | 0.07 | 0.07 | 90 | 1014.9 |
| 20260510000039 | 76 | 359 | 0.0 | 1.7 | 0.00 | 0.07 | 0.07 | 89 | 1014.6 |
| 20260509234543 | 76 | 359 | 0.0 | 0.9 | 0.00 | 0.64 | 0.07 | 89 | 1014.5 |
| 20260509233038 | 76 | 39 | 0.0 | 2.6 | 0.00 | 0.64 | 0.07 | 89 | 1014.5 |
| 20260509231537 | 76 | 23 | 0.0 | 0.9 | 0.05 | 0.64 | 0.07 | 88 | 1014.4 |
| 20260509230041 | 76 | 50 | 0.0 | 0.9 | 0.06 | 0.64 | 0.07 | 87 | 1014.2 |
| 20260509224546 | 76 | 55 | 0.0 | 0.9 | 0.06 | 0.64 | 0.07 | 87 | 1014.1 |
| 20260509223039 | 76 | 359 | 0.0 | 0.9 | 0.06 | 0.64 | 0.07 | 87 | 1014.2 |
| 20260509221535 | 76 | 34 | 0.0 | 1.7 | 0.01 | 0.59 | 0.02 | 85 | 1014.4 |
| 20260509220034 | 76 | 359 | 0.0 | 2.6 | 0.00 | 0.57 | 0.01 | 83 | 1014.4 |
| 20260509214539 | 77 | 359 | 0.0 | 8.7 | 0.01 | 0.57 | 0.01 | 81 | 1014.2 |
| 20260509213034 | 77 | 359 | 1.7 | 12.2 | 0.01 | 0.57 | 0.01 | 80 | 1014.1 |
| 20260509211534 | 78 | 359 | 0.0 | 7.8 | 0.01 | 0.57 | 0.01 | 83 | 1013.5 |
| 20260509210032 | 78 | 359 | 0.0 | 2.6 | 0.01 | 0.57 | 0.01 | 83 | 1013.3 |
| 20260509204533 | 80 | 359 | 1.7 | 15.6 | 0.00 | 0.56 | 0.00 | 78 | 1013.7 |
| 20260509203036 | 82 | 14 | 1.7 | 12.2 | 0.00 | 0.56 | 0.00 | 76 | 1013.4 |
| 20260509201532 | 82 | 52 | 0.0 | 6.1 | 0.00 | 0.56 | 0.00 | 76 | 1013.0 |
| 20260509200031 | 82 | 99 | 2.6 | 8.7 | 0.00 | 0.56 | 0.00 | 77 | 1012.8 |
| 20260509194532 | 83 | 45 | 1.7 | 7.0 | 0.00 | 0.56 | 0.00 | 76 | 1012.9 |